GALAXY 37 (G-37)

Last updated on Thu Oct 30 2025 00:02:52 GMT+0000 (Coordinated Universal Time)

1 57493U 23112A 25302.52587786 .00000000 00000+0 00000+0 0 9995 2 57493 0.0105 258.8501 0002065 325.5415 236.0239 1.00270439 8237
UTC large
Height (km)
Speed (km/s)
/
Latitude / Longitude
Inclination (degrees)
Orbital Period (minutes)
Azimuth
Elevation
Range (km)
Doppler Factor

Next 0 passes for location: London (51.5072 / 0.1276)

Sorry there are no passes over London.